Epoch 2002 Mar. 27.0 TT = JDT 2452360.5 T 2002 Apr. 10.79653 TT MPC q 3.2538275 (2000.0) P Q z +0.0000629 Peri. 159.92935 +0.34856287 +0.37090229 +/-0.0000168 Node 242.95563 +0.67237431 +0.54088026 e 0.9997953 Incl. 104.88280 +0.65300590 -0.75490399
m1 = 9.0 + 5 logΔ + 10.0 log r